Location: Capelle
(50.3413°N, 1.9974°E)
Time: 23:25:18
(UTC+00:00)

Thor Agena Rocket - Pass Details

Date: 12 January 2026
Orbit: 755 x 802 km, 99.1° (Epoch: 9 February)

Event Time Altitude Azimuth Distance (km) Brightness Sun altitude
Rises 16:59:05 0° 160° (SSE) 3,209 6.8 -7.2°
Reaches altitude 10° 17:01:22 10° 159° (SSE) 2,284 6.0 -7.6°
Maximum altitude 17:06:23 84° 73° (ENE) 768 3.5 -8.3°
Drops below altitude 10° 17:11:26 10° 345° (NNW) 2,294 5.9 -9.0°
Sets 17:13:45 0° 345° (NNW) 3,225 6.7 -9.4°
